Volver al catálogo

SL-8 DEB

ActivoPO
NORAD 7560·DEBRIS·🇷🇺 Russia

Lanzado Aug 16, 1972 desde Plesetsk Cosmodrome

Loading…

Próximos Pases (próximas 24 horas)

TLE

ActualizadoSource: Space-Track

Época: Sep 13, 2026, 23:44 UTC

1 07560U 72062D   26256.98893583  .00000206  00000-0  10971-3 0  9998
2 07560  82.9716  93.0266 0065560  39.1208 321.4679 14.07819907652083

Sigue SL-8 DEB en tiempo real con AllMySat

Download on the App Store